Weather History for Hamilton, OH

Change the Weather History Date:

Monday, August 19, 2013

  Actual Average (KCVG) Record (KCVG)
Temperature  
Mean Temperature 70 °F 75 °F  
Max Temperature 86 °F 85 °F 102 °F (1936)
Min Temperature 57 °F 65 °F 49 °F (1953)
Degree Days  
Heating Degree Days 0 0  
Month to date heating degree days 0  
Since 1 June heating degree days 15  
Since 1 July heating degree days 0  
Cooling Degree Days 6 10  
Month to date cooling degree days 199  
Year to date cooling degree days 858  
Since 1 June cooling degree days 764  
Growing Degree Days 20 (Base 50)    
Moisture  
Dew Point 59 °F    
Average Humidity 78    
Maximum Humidity 100    
Minimum Humidity 38    
Precipitation  
Precipitation 0.00 in 0.11 in 1.37 in (1905)
Month to date precipitation 2.17  
Year to date precipitation 28.55  
Snow  
Snow 0.00 in 0.00 in 0.00 in ()
Month to date snowfall 0.0  
Since 1 June snowfall 0.0  
Since 1 July snowfall 0.0  
Snow Depth -    
Sea Level Pressure  
Sea Level Pressure 30.13 in    
Wind  
Wind Speed 1 mph (NNW)    
Max Wind Speed 7 mph    
Max Gust Speed -    
Visibility 7 miles    
Events      
T = Trace of Precipitation, MM = Missing Value Source: NWS Daily Summary

Daily Weather History Graph

Daily Weather History Graph

Search for Another Location

Airport:

Trip Planner

Search our weather history database for the weather conditions in past years. The results will help you decide how hot, cold, wet, or windy it might be!

Date:

Astronomy

Aug. 19, 2013 Rise Set
Actual Time 6:54 AM EDT 8:27 PM EDT
Civil Twilight 6:26 AM EDT 8:56 PM EDT
Nautical Twilight 5:52 AM EDT 9:30 PM EDT
Astronomical Twilight 5:15 AM EDT 10:06 PM EDT
Moon 7:18 PM EDT (8/19) 5:13 AM EDT (8/19)
Length of Visible Light 14h 29m
Length of Day
13h 33m
Waxing Gibbous, 97% of the Moon is Illuminated
Aug 19
Waxing Gibbous
Aug 20
Full
Aug 28
Last Quarter
Sep 5
New
Sep 12
First Quarter

Hourly Weather History & Observations

Time (EDT) Temp. Heat Index Dew Point Humidity Pressure Visibility Wind Dir Wind Speed Gust Speed Precip Events Conditions
12:53 AM 64.0 °F - 62.1 °F 93% 30.14 in 10.0 mi Calm Calm - N/A   Clear
1:53 AM 62.1 °F - 60.1 °F 93% 30.13 in 5.0 mi Calm Calm - N/A   Clear
2:53 AM 61.0 °F - 60.1 °F 97% 30.13 in 6.0 mi Calm Calm - N/A   Clear
3:53 AM 60.1 °F - 59.0 °F 96% 30.13 in 5.0 mi Calm Calm - N/A   Clear
4:53 AM 59.0 °F - 57.0 °F 93% 30.13 in 3.0 mi Calm Calm - N/A   Partly Cloudy
5:01 AM 59.0 °F - 57.2 °F 94% 30.14 in 2.0 mi Calm Calm - N/A   Partly Cloudy
5:07 AM 59.0 °F - 57.2 °F 94% 30.14 in 1.0 mi Calm Calm - N/A   Mist
5:17 AM 59.0 °F - 57.2 °F 94% 30.14 in 2.5 mi Calm Calm - N/A   Scattered Clouds
5:24 AM 57.2 °F - 57.2 °F 100% 30.14 in 4.0 mi Calm Calm - N/A   Partly Cloudy
5:53 AM 57.9 °F - 57.0 °F 97% 30.14 in 5.0 mi Calm Calm - N/A   Partly Cloudy
6:53 AM 57.0 °F - 55.9 °F 96% 30.15 in 6.0 mi Calm Calm - N/A   Partly Cloudy
7:07 AM 57.2 °F - 55.4 °F 94% 30.16 in 1.2 mi Calm Calm - N/A   Scattered Clouds
7:11 AM 57.2 °F - 55.4 °F 94% 30.16 in 0.8 mi Calm Calm - N/A   Mist
7:17 AM 57.2 °F - 55.4 °F 94% 30.16 in 1.2 mi Calm Calm - N/A   Partly Cloudy
7:19 AM 57.2 °F - 55.4 °F 94% 30.16 in 2.5 mi Calm Calm - N/A   Partly Cloudy
7:26 AM 57.2 °F - 55.4 °F 94% 30.16 in 3.0 mi Calm Calm - N/A   Partly Cloudy
7:53 AM 61.0 °F - 59.0 °F 93% 30.16 in 6.0 mi Calm Calm - N/A   Clear
8:53 AM 66.9 °F - 64.0 °F 90% 30.16 in 6.0 mi Calm Calm - N/A   Clear
9:53 AM 72.0 °F - 64.9 °F 78% 30.15 in 9.0 mi WNW 3.5 mph - N/A   Clear
10:53 AM 77.0 °F - 62.1 °F 60% 30.15 in 10.0 mi NNW 4.6 mph - N/A   Clear
11:53 AM 81.0 °F 81.3 °F 59.0 °F 47% 30.15 in 10.0 mi NW 5.8 mph - N/A   Clear
12:53 PM 82.9 °F 83.2 °F 60.1 °F 46% 30.14 in 10.0 mi Variable 6.9 mph - N/A   Partly Cloudy
1:53 PM 82.9 °F 82.1 °F 55.9 °F 39% 30.12 in 10.0 mi Variable 3.5 mph - N/A   Clear
2:53 PM 84.9 °F 84.2 °F 57.9 °F 40% 30.12 in 10.0 mi Variable 4.6 mph - N/A   Partly Cloudy
3:53 PM 82.9 °F 82.4 °F 57.0 °F 41% 30.10 in 10.0 mi Calm Calm - N/A   Clear
4:53 PM 84.9 °F 83.9 °F 57.0 °F 38% 30.09 in 10.0 mi NNW 4.6 mph - N/A   Partly Cloudy
5:53 PM 84.0 °F 83.8 °F 59.0 °F 43% 30.09 in 10.0 mi NNW 5.8 mph - N/A   Clear
6:53 PM 84.0 °F 83.5 °F 57.9 °F 41% 30.08 in 10.0 mi NNE 3.5 mph - N/A   Clear
7:53 PM 75.9 °F - 61.0 °F 60% 30.08 in 10.0 mi NNE 3.5 mph - N/A   Clear
8:53 PM 66.9 °F - 62.1 °F 84% 30.08 in 10.0 mi Calm Calm - N/A   Clear
9:53 PM 64.9 °F - 61.0 °F 87% 30.10 in 10.0 mi Calm Calm - N/A   Clear
10:53 PM 63.0 °F - 61.0 °F 93% 30.11 in 9.0 mi Calm Calm - N/A   Clear
11:53 PM 63.0 °F - 60.1 °F 90% 30.12 in 9.0 mi Calm Calm - N/A   Clear